When you browse on this site, cookies collect data to enhance your experience and personalize the content and advertising you see.
Visit our Privacy Policy to learn more. By continuing to use the site, you agree to this use of cookies and data.
  • In Latvia
  • List of Countries
  • For 7 days
  • Water Temperature
  • Weather Map
  • Weather Widgets
  • user-avatar
    Login

    Hourly Weather Levashovka

    Today, 25 August, Sunday

    Time Temperature Precipitation Wind Pressure Humidity
    00:00 +15°C° 0 mm 1 mps 759 mmHg 69%
    01:00 +15°C° 0 mm 1 mps 759 mmHg 71%
    02:00 +15°C° 0 mm 1 mps 759 mmHg 72%
    03:00 +15°C° 0 mm 1 mps 759 mmHg 72%
    04:00 +15°C° 0 mm 1 mps 758 mmHg 72%
    05:00 +15°C° 0 mm 2 mps 758 mmHg 73%
    06:00 +15°C° 0 mm 2 mps 758 mmHg 73%
    07:00 +17°C° 0 mm 3 mps 758 mmHg 68%
    08:00 +19°C° 0 mm 3 mps 758 mmHg 62%
    09:00 +21°C° 0 mm 3 mps 758 mmHg 56%
    10:00 +22°C° 0 mm 4 mps 757 mmHg 55%
    11:00 +23°C° 0 mm 4 mps 757 mmHg 54%
    12:00 +25°C° 0 mm 5 mps 757 mmHg 53%
    13:00 +25°C° 0 mm 5 mps 757 mmHg 53%
    14:00 +23°C° 0 mm 6 mps 757 mmHg 52%
    15:00 +23°C° 0 mm 6 mps 757 mmHg 51%
    16:00 +22°C° 0 mm 6 mps 757 mmHg 56%
    17:00 +20°C° 0 mm 6 mps 758 mmHg 61%
    18:00 +19°C° 0 mm 6 mps 758 mmHg 65%
    19:00 +16°C° 0 mm 6 mps 758 mmHg 69%
    20:00 +15°C° 0 mm 5 mps 759 mmHg 73%
    21:00 +14°C° 0 mm 4 mps 759 mmHg 77%
    22:00 +13°C° 0 mm 5 mps 760 mmHg 80%
    23:00 +13°C° 0 mm 5 mps 760 mmHg 82%

    Tomorrow, 26 August, Monday

    Time Temperature Precipitation Wind Pressure Humidity
    00:00 +13°C° 0 mm 5 mps 760 mmHg 84%
    01:00 +13°C° 0 mm 5 mps 760 mmHg 86%
    02:00 +12°C° 0 mm 5 mps 761 mmHg 88%
    03:00 +12°C° 0 mm 5 mps 762 mmHg 89%
    04:00 +12°C° 0 mm 5 mps 762 mmHg 89%
    05:00 +12°C° 0 mm 4 mps 762 mmHg 89%
    06:00 +12°C° 0 mm 4 mps 762 mmHg 88%
    07:00 +13°C° 0 mm 5 mps 762 mmHg 82%
    08:00 +14°C° 0 mm 5 mps 763 mmHg 75%
    09:00 +15°C° 0 mm 5 mps 763 mmHg 69%
    10:00 +16°C° 0 mm 5 mps 763 mmHg 63%
    11:00 +17°C° 0 mm 5 mps 762 mmHg 57%
    12:00 +19°C° 0 mm 5 mps 762 mmHg 50%
    13:00 +20°C° 0 mm 4 mps 762 mmHg 50%
    14:00 +20°C° 0 mm 4 mps 762 mmHg 49%
    15:00 +20°C° 0 mm 4 mps 762 mmHg 48%
    16:00 +19°C° 0 mm 3 mps 762 mmHg 52%
    17:00 +18°C° 0 mm 3 mps 762 mmHg 57%
    18:00 +18°C° 0 mm 2 mps 761 mmHg 62%
    19:00 +16°C° 0 mm 2 mps 761 mmHg 64%
    20:00 +15°C° 0 mm 2 mps 761 mmHg 67%
    21:00 +14°C° 0 mm 2 mps 761 mmHg 70%
    22:00 +14°C° 0 mm 2 mps 761 mmHg 71%
    23:00 +14°C° 0 mm 2 mps 761 mmHg 72%

    Day after tomorrow, 27 August, Tuesday

    Time Temperature Precipitation Wind Pressure Humidity
    00:00 +13°C° 0 mm 2 mps 760 mmHg 73%
    01:00 +13°C° 0 mm 2 mps 760 mmHg 74%
    02:00 +12°C° 0 mm 3 mps 759 mmHg 76%
    03:00 +12°C° 0 mm 3 mps 759 mmHg 77%
    04:00 +12°C° 0 mm 4 mps 758 mmHg 76%
    05:00 +13°C° 0 mm 4 mps 758 mmHg 75%
    06:00 +13°C° 0 mm 4 mps 757 mmHg 74%
    07:00 +14°C° 0 mm 5 mps 756 mmHg 70%
    08:00 +16°C° 0 mm 5 mps 756 mmHg 65%
    09:00 +17°C° 0 mm 6 mps 755 mmHg 61%
    10:00 +17°C° 0.1 mm 6 mps 755 mmHg 62%
    11:00 +19°C° 0.1 mm 6 mps 754 mmHg 63%
    12:00 +18°C° 0.1 mm 7 mps 753 mmHg 64%
    13:00 +17°C° 0.8 mm 6 mps 753 mmHg 71%
    14:00 +16°C° 0.8 mm 6 mps 752 mmHg 78%
    15:00 +16°C° 0.8 mm 6 mps 752 mmHg 85%
    16:00 +16°C° 0.4 mm 5 mps 751 mmHg 84%
    17:00 +17°C° 0.4 mm 4 mps 751 mmHg 83%
    18:00 +17°C° 0.4 mm 3 mps 750 mmHg 83%
    19:00 +16°C° 0.9 mm 3 mps 750 mmHg 85%
    20:00 +14°C° 0.9 mm 4 mps 749 mmHg 87%
    21:00 +13°C° 0.9 mm 4 mps 749 mmHg 90%
    22:00 +13°C° 0.2 mm 4 mps 749 mmHg 89%
    23:00 +13°C° 0.2 mm 5 mps 749 mmHg 89%

    28 August, Wednesday

    Time Temperature Precipitation Wind Pressure Humidity
    00:00 +13°C° 0.2 mm 5 mps 748 mmHg 88%
    01:00 +11°C° 0.3 mm 6 mps 748 mmHg 88%
    02:00 +11°C° 0.3 mm 6 mps 748 mmHg 88%
    03:00 +10°C° 0.3 mm 7 mps 748 mmHg 88%
    04:00 +10°C° 0.3 mm 7 mps 748 mmHg 87%
    05:00 +10°C° 0.3 mm 7 mps 748 mmHg 87%
    06:00 +10°C° 0.3 mm 7 mps 748 mmHg 86%
    07:00 +9°C° 0.1 mm 8 mps 749 mmHg 85%
    08:00 +9°C° 0.1 mm 8 mps 749 mmHg 84%
    09:00 +8°C° 0.1 mm 9 mps 749 mmHg 83%
    10:00 +10°C° 0 mm 9 mps 750 mmHg 79%
    11:00 +10°C° 0 mm 9 mps 750 mmHg 76%
    12:00 +10°C° 0 mm 9 mps 750 mmHg 73%
    13:00 +10°C° 0.1 mm 9 mps 750 mmHg 74%
    14:00 +10°C° 0.1 mm 9 mps 751 mmHg 76%
    15:00 +10°C° 0.1 mm 9 mps 751 mmHg 78%
    16:00 +10°C° 0.1 mm 9 mps 751 mmHg 78%
    17:00 +10°C° 0.1 mm 9 mps 751 mmHg 78%
    18:00 +10°C° 0.1 mm 9 mps 751 mmHg 79%
    19:00 +10°C° 0.2 mm 9 mps 751 mmHg 81%
    20:00 +10°C° 0.2 mm 9 mps 751 mmHg 83%
    21:00 +8°C° 0.2 mm 9 mps 752 mmHg 85%
    22:00 +8°C° 0.1 mm 9 mps 752 mmHg 86%
    23:00 +8°C° 0.1 mm 9 mps 752 mmHg 87%

    29 August, Thursday

    Time Temperature Precipitation Wind Pressure Humidity
    00:00 +8°C° 0.1 mm 10 mps 752 mmHg 88%
    01:00 +8°C° 0 mm 10 mps 752 mmHg 87%
    02:00 +8°C° 0 mm 10 mps 752 mmHg 86%
    03:00 +8°C° 0 mm 10 mps 753 mmHg 85%
    04:00 +8°C° 0 mm 10 mps 753 mmHg 84%
    05:00 +8°C° 0 mm 10 mps 753 mmHg 83%
    06:00 +8°C° 0 mm 9 mps 754 mmHg 82%
    07:00 +8°C° 0 mm 10 mps 754 mmHg 80%
    08:00 +8°C° 0 mm 10 mps 754 mmHg 79%
    09:00 +8°C° 0 mm 10 mps 755 mmHg 78%
    10:00 +8°C° 0 mm 10 mps 755 mmHg 76%
    11:00 +8°C° 0 mm 9 mps 755 mmHg 74%
    12:00 +8°C° 0 mm 9 mps 755 mmHg 73%
    13:00 +10°C° 0 mm 9 mps 756 mmHg 70%
    14:00 +10°C° 0 mm 9 mps 756 mmHg 68%
    15:00 +11°C° 0 mm 9 mps 756 mmHg 65%
    16:00 +11°C° 0 mm 9 mps 756 mmHg 67%
    17:00 +10°C° 0 mm 9 mps 756 mmHg 68%
    18:00 +10°C° 0 mm 8 mps 757 mmHg 69%
    19:00 +9°C° 0 mm 8 mps 757 mmHg 70%
    20:00 +9°C° 0 mm 8 mps 757 mmHg 71%
    21:00 +9°C° 0 mm 8 mps 757 mmHg 71%
    22:00 +9°C° 0 mm 7 mps 757 mmHg 73%
    23:00 +8°C° 0 mm 7 mps 757 mmHg 74%

    30 August, Friday

    Time Temperature Precipitation Wind Pressure Humidity
    00:00 +8°C° 0 mm 7 mps 757 mmHg 75%
    01:00 +8°C° 0 mm 7 mps 757 mmHg 77%
    02:00 +8°C° 0 mm 7 mps 757 mmHg 78%
    03:00 +8°C° 0 mm 7 mps 757 mmHg 80%
    04:00 +8°C° 0 mm 6 mps 757 mmHg 80%
    05:00 +9°C° 0 mm 6 mps 757 mmHg 81%
    06:00 +9°C° 0 mm 6 mps 757 mmHg 82%
    07:00 +9°C° 0.1 mm 6 mps 758 mmHg 82%
    08:00 +9°C° 0.1 mm 6 mps 758 mmHg 81%
    09:00 +9°C° 0.1 mm 6 mps 758 mmHg 81%
    10:00 +9°C° 0.3 mm 6 mps 758 mmHg 83%
    11:00 +9°C° 0.3 mm 6 mps 759 mmHg 85%
    12:00 +9°C° 0.3 mm 6 mps 759 mmHg 87%
    13:00 +9°C° 0.2 mm 5 mps 759 mmHg 86%
    14:00 +9°C° 0.2 mm 5 mps 759 mmHg 84%
    15:00 +9°C° 0.2 mm 5 mps 759 mmHg 83%
    16:00 +10°C° 0.1 mm 5 mps 759 mmHg 82%
    17:00 +10°C° 0.1 mm 5 mps 759 mmHg 81%
    18:00 +10°C° 0.1 mm 5 mps 760 mmHg 80%
    19:00 +10°C° 0 mm 5 mps 760 mmHg 81%
    20:00 +10°C° 0 mm 4 mps 760 mmHg 82%
    21:00 +10°C° 0 mm 4 mps 760 mmHg 82%
    22:00 +10°C° 0 mm 4 mps 760 mmHg 81%
    23:00 +10°C° 0 mm 4 mps 761 mmHg 80%
    Show more